Location: Arrodets-la-Barthe
(43.0306°N, 0.2829°E)
Time: 04:42:31
(UTC+00:00)

ITUPSAT 1 - Visible Passes

Search period start: 23 March 2023 00:00
Search period end: 02 April 2023 00:00
Orbit: 699 x 709 km, 98.5° (Epoch: 22 March)

Date Brightness Start Highest point End Pass type
(mag) Time Alt. Az. Time Alt. Az. Time Alt. Az.
23 Mar ? 21:33:28 10° N 21:35:00 20° N 21:35:00 20° N visible
24 Mar ? 20:39:12 10° NNE 20:40:07 15° NNE 20:40:07 15° NNE visible
24 Mar ? 22:17:32 10° NNW 22:19:03 17° NNW 22:19:03 17° NNW visible
25 Mar ? 21:22:23 10° N 21:24:10 23° N 21:24:10 23° N visible
26 Mar ? 20:28:21 10° NNE 20:29:17 15° NE 20:29:17 15° NE visible
26 Mar ? 22:06:15 10° N 22:08:13 21° NNW 22:08:13 21° NNW visible
27 Mar ? 21:11:21 10° NNE 21:13:20 25° NNE 21:13:20 25° NNE visible
27 Mar ? 22:51:23 10° NW 22:52:16 11° NW 22:52:16 11° NW visible
28 Mar ? 20:17:35 10° NE 20:18:26 14° NE 20:18:26 14° NE visible
28 Mar ? 21:55:01 10° N 21:57:22 25° NNW 21:57:22 25° NNW visible
29 Mar ? 21:00:20 10° NNE 21:02:28 26° NNE 21:02:28 26° NNE visible
29 Mar ? 22:39:36 10° NNW 22:41:24 15° NW 22:41:24 15° NW visible
30 Mar ? 20:06:55 10° NE 20:07:35 13° NE 20:07:35 13° NE visible
30 Mar ? 21:43:50 10° N 21:46:30 30° NNW 21:46:30 30° NNW visible
31 Mar ? 20:49:23 10° NNE 20:51:36 26° NE 20:51:36 26° NE visible
31 Mar ? 22:28:05 10° NNW 22:30:31 18° NW 22:30:31 18° NW visible
01 Apr ? 19:56:25 10° NE 19:56:41 11° ENE 19:56:41 11° ENE visible
01 Apr ? 21:32:41 10° N 21:35:37 36° N 21:35:37 36° N visible
